WB8SKP-WX Weather Reports


Display with metric or nautical units.
time (UTC)temp
F
wind
direction
speed
MPH
gust
MPH
rain 1hr
in
rain 24hr
in
rain mn
in
humidity
%
barometer
mb
20260504081022 51 175 0.0 5.0 0.00 0.00 0.00 85 993.2
20260504044952 53 171 0.0 12.0 0.00 0.00 0.00 74 994.7
20260504042952 53 76 0.0 12.0 0.00 0.00 0.00 77 994.9
20260504040952 54 140 0.0 12.0 0.00 0.00 0.00 76 995.0
20260504034952 55 15 0.0 12.0 0.00 0.00 0.00 71 995.2
20260504032922 58 76 0.0 12.0 0.00 0.00 0.00 65 995.3
20260504030922 60 217 1.0 12.0 0.00 0.00 0.00 56 995.2
20260504024852 60 337 0.0 12.0 0.00 0.00 0.00 55 994.9
20260504022852 58 265 3.0 12.0 0.00 0.00 0.00 60 994.6
20260504020852 57 238 3.0 12.0 0.00 0.00 0.00 61 994.8
20260504014852 56 114 0.0 12.0 0.00 0.00 0.00 67 995.0
20260504012822 58 204 0.0 12.0 0.00 0.00 0.00 65 995.0
20260504010822 60 79 0.0 12.0 0.00 0.00 0.00 60 995.0
20260504004822 63 79 0.0 12.0 0.00 0.00 0.00 52 995.1
20260504002826 65 329 0.0 12.0 0.00 0.00 0.00 47 995.1
20260504000752 67 213 0.0 12.0 0.00 0.00 0.00 43 995.1
20260503234752 68 242 2.0 12.0 0.00 0.00 0.00 42 995.0
20260503232752 68 247 2.0 12.0 0.00 0.00 0.00 41 995.3
20260503230752 69 207 3.0 12.0 0.00 0.00 0.00 40 995.5
20260503224752 69 197 6.0 12.0 0.00 0.00 0.00 39 995.7
20260503222722 69 205 1.0 12.0 0.00 0.00 0.00 40 995.9
20260503220722 69 275 3.0 12.0 0.00 0.00 0.00 39 996.2
20260503214652 68 194 2.0 12.0 0.00 0.00 0.00 40 996.5
20260503212652 68 208 2.0 12.0 0.00 0.00 0.00 42 996.8
20260503210652 68 189 6.0 12.0 0.00 0.00 0.00 41 997.1
20260503204622 68 257 5.0 12.0 0.00 0.00 0.00 41 997.3
20260503202622 67 261 5.0 12.0 0.00 0.00 0.00 41 997.9
20260503200552 67 199 1.0 12.0 0.00 0.00 0.00 41 998.3
20260503194552 66 226 3.0 11.0 0.00 0.00 0.00 43 998.7
20260503192552 66 290 1.0 11.0 0.00 0.00 0.00 45 999.0
20260503190552 65 249 2.0 11.0 0.00 0.00 0.00 43 999.6
20260503184522 64 206 5.0 11.0 0.00 0.00 0.00 43 999.8
20260503182451 64 268 3.0 10.0 0.00 0.00 0.00 47 1000.1
20260503180452 64 310 3.0 10.0 0.00 0.00 0.00 43 1000.5
20260503174451 63 347 3.0 10.0 0.00 0.00 0.00 43 1000.5
20260503172451 63 249 1.0 10.0 0.00 0.00 0.00 48 1000.9
20260503170451 62 182 2.0 10.0 0.00 0.00 0.00 49 1001.1
20260503150321 56 205 3.0 8.0 0.00 0.00 0.00 64 1002.0
20260503140251 51 209 3.0 6.0 0.00 0.00 0.00 90 1002.1
20260503130221 45 21 0.0 4.0 0.00 0.00 0.00 99 1002.2